KTXEAGLE7 Weather Reports


time (UTC)temp
C
wind
direction
speed
KPH
gust
KPH
rain 1hr
cm
rain 24hr
cm
rain mn
cm
humidity
%
barometer
mb
20260506061529 23 170 9.7 19.3 0.00 0.00 0.00 96 1009.7
20260506044521 24 152 6.4 12.9 0.00 0.00 0.00 95 1009.8
20260506043020 24 143 4.8 9.7 0.00 0.00 0.00 95 1009.9
20260506041519 24 150 4.8 14.5 0.00 0.00 0.00 94 1009.8
20260506040019 24 144 11.3 19.3 0.00 0.00 0.00 94 1009.6
20260506034520 24 152 8.0 17.7 0.00 0.00 0.00 94 1009.6
20260506033018 24 135 9.7 16.1 0.00 0.00 0.00 94 1009.3
20260506031518 24 135 8.0 19.3 0.00 0.00 0.00 93 1008.9
20260506030017 24 170 12.9 24.1 0.00 0.00 0.00 93 1008.6
20260506024517 24 157 9.7 22.5 0.00 0.00 0.00 91 1008.6
20260506023031 25 170 11.3 17.7 0.00 0.00 0.00 91 1008.6
20260506021531 25 164 11.3 22.5 0.00 0.00 0.00 91 1008.5
20260506020014 25 162 9.7 19.3 0.00 0.00 0.00 91 1008.1
20260506014518 25 161 6.4 14.5 0.00 0.00 0.00 91 1007.9
20260506013015 25 162 8.0 14.5 0.00 0.00 0.00 90 1007.7
20260506011514 25 163 8.0 19.3 0.00 0.00 0.00 90 1007.6
20260506010014 25 157 11.3 19.3 0.00 0.00 0.00 89 1007.3
20260506004513 25 172 8.0 16.1 0.00 0.00 0.00 88 1007.3
20260506003014 25 160 12.9 24.1 0.00 0.00 0.00 87 1007.1
20260506001511 26 169 12.9 22.5 0.00 0.00 0.00 86 1007.0
20260506000012 26 151 9.7 27.4 0.00 0.00 0.00 86 1007.0
20260505234513 26 167 16.1 29.0 0.00 0.00 0.00 85 1006.9
20260505233009 26 188 16.1 33.8 0.00 0.00 0.00 84 1006.8
20260505231514 26 152 19.3 37.0 0.00 0.00 0.00 84 1006.8
20260505230020 26 178 19.3 37.0 0.00 0.00 0.00 84 1006.8
20260505224512 26 169 17.7 35.4 0.00 0.00 0.00 83 1006.8
20260505223006 26 185 16.1 32.2 0.00 0.00 0.00 84 1007.0
20260505221506 26 178 22.5 35.4 0.00 0.00 0.00 84 1007.1
20260505220004 26 149 16.1 30.6 0.00 0.00 0.00 85 1007.2
20260505214502 26 172 14.5 27.4 0.00 0.00 0.00 85 1007.6
20260505213101 26 189 20.9 33.8 0.00 0.00 0.00 84 1007.7
20260505211600 26 167 24.1 33.8 0.00 0.00 0.00 84 1007.7
20260505210058 26 184 19.3 35.4 0.00 0.00 0.00 84 1007.9
20260505204555 26 187 22.5 35.4 0.00 0.00 0.00 85 1008.2
20260505203112 26 196 27.4 40.2 0.00 0.00 0.00 84 1008.4
20260505201600 26 168 22.5 35.4 0.00 0.00 0.00 85 1008.7
20260505200054 26 180 20.9 33.8 0.00 0.00 0.00 86 1009.0
20260505194549 26 173 19.3 32.2 0.00 0.00 0.00 86 1008.9
20260505193048 26 183 19.3 30.6 0.00 0.00 0.00 87 1009.2
20260505191552 26 194 19.3 30.6 0.00 0.00 0.00 87 1009.3
20260505190044 26 184 16.1 24.1 0.00 0.00 0.00 88 1009.4
20260505184544 25 195 12.9 24.1 0.00 0.00 0.00 88 1009.3
20260505183043 26 179 12.9 30.6 0.00 0.00 0.00 89 1009.4
20260505181545 25 185 20.9 32.2 0.00 0.00 0.00 87 1009.5
20260505180041 25 196 16.1 33.8 0.00 0.00 0.00 87 1009.7
20260505174544 26 185 17.7 32.2 0.00 0.00 0.00 87 1010.0
20260505173039 25 178 17.7 29.0 0.00 0.00 0.00 88 1009.9
20260505171543 25 213 27.4 38.6 0.00 0.00 0.00 87 1010.0
20260505170040 25 203 27.4 38.6 0.00 0.00 0.00 88 1010.0
20260505164531 25 180 20.9 32.2 0.00 0.00 0.00 90 1010.0
20260505163033 25 198 16.1 27.4 0.00 0.00 0.00 91 1010.0
20260505161527 25 204 16.1 29.0 0.00 0.00 0.00 91 1009.9
20260505153021 24 194 17.7 30.6 0.00 0.00 0.00 93 1009.9
20260505151520 23 211 14.5 30.6 0.00 0.00 0.00 94 1009.8
20260505130106 21 182 11.3 16.1 0.00 0.00 0.00 99 1009.7
20260505124558 21 162 8.0 16.1 0.00 0.00 0.00 99 1009.7
20260505123056 21 179 4.8 11.3 0.00 0.00 0.00 99 1009.7
20260505121615 20 172 3.2 8.0 0.00 0.00 0.00 99 1009.2
20260505120053 20 182 6.4 9.7 0.00 0.00 0.00 99 1009.1
20260505114551 20 164 3.2 9.7 0.00 0.00 0.00 99 1008.9
20260505113050 20 156 3.2 8.0 0.00 0.00 0.00 99 1009.0
20260505111549 20 154 4.8 9.7 0.00 0.00 0.00 98 1008.8
20260505101554 20 178 4.8 9.7 0.00 0.00 0.00 98 1009.0
20260505100045 20 163 4.8 8.0 0.00 0.00 0.00 98 1008.8
20260505094543 20 163 3.2 8.0 0.00 0.00 0.00 97 1009.4
20260505093044 20 173 6.4 8.0 0.00 0.00 0.00 97 1009.4
20260505091542 20 164 1.6 4.8 0.00 0.00 0.00 97 1009.2
20260505090055 20 187 1.6 6.4 0.00 0.00 0.00 97 1009.4
20260505084548 20 187 4.8 9.7 0.00 0.00 0.00 97 1009.4
20260505083039 20 165 1.6 8.0 0.00 0.00 0.00 96 1009.7
20260505081542 20 192 1.6 6.4 0.00 0.00 0.00 96 1010.0
20260505080034 20 192 4.8 12.9 0.00 0.00 0.00 96 1010.0
20260505074535 20 172 6.4 11.3 0.00 0.00 0.00 96 1009.8
20260505073037 20 158 6.4 12.9 0.00 0.00 0.00 96 1010.0
20260505071531 20 160 6.4 12.9 0.00 0.00 0.00 95 1010.0